BAW384N EGLL-EBBR

Flight info

Callsign BAW384N
Flight time 0h 41m
Altitude 23000
Route DET Q70 KOK
Aircraft A21N/M-SDE2E3FGHIRWXY/LB1

Departure

Time 2026-05-07 19:41
Airport London Heathrow Airport (EGLL)

Arrival

Time 2026-05-07 20:22
Airport Brussels Airport (EBBR)
Time Latitude Longitude Altitude Speed Heading
2026-05-07 19:14 51.46926 -0.48787 93 ft 0 kts 360°
2026-05-07 19:23 51.46923 -0.48787 93 ft 3 kts 360°
2026-05-07 19:23 51.46899 -0.48787 95 ft 2 kts 360°
2026-05-07 19:23 51.46881 -0.48789 93 ft 4 kts 43°
2026-05-07 19:24 51.46876 -0.48806 92 ft 3 kts 90°
2026-05-07 19:24 51.46876 -0.48785 91 ft 0 kts 90°
2026-05-07 19:26 51.46858 -0.48769 92 ft 0 kts 195°
2026-05-07 19:26 51.46836 -0.48761 95 ft 7 kts 172°
2026-05-07 19:27 51.46809 -0.48756 93 ft 0 kts 170°
2026-05-07 19:35 51.46806 -0.48755 92 ft 4 kts 171°
2026-05-07 19:35 51.46727 -0.48747 92 ft 12 kts 178°
2026-05-07 19:36 51.46638 -0.48747 92 ft 10 kts 191°
2026-05-07 19:36 51.46602 -0.48764 94 ft 0 kts 197°
2026-05-07 19:39 51.46564 -0.48784 91 ft 11 kts 199°
2026-05-07 19:39 51.46529 -0.48790 91 ft 1 kts 172°
2026-05-07 19:39 51.46508 -0.48766 94 ft 8 kts 136°
2026-05-07 19:39 51.46485 -0.48695 94 ft 6 kts 108°
2026-05-07 19:40 51.46480 -0.48622 92 ft 8 kts 92°
2026-05-07 19:40 51.46479 -0.48525 92 ft 10 kts 90°
2026-05-07 19:40 51.46481 -0.48323 93 ft 42 kts 89°
2026-05-07 19:40 51.46483 -0.47499 92 ft 105 kts 89°
2026-05-07 19:41 51.46487 -0.46024 95 ft 155 kts 91°
2026-05-07 19:41 51.46506 -0.44213 466 ft 162 kts 90°
2026-05-07 19:41 51.46533 -0.42396 1018 ft 167 kts 96°
2026-05-07 19:41 51.46173 -0.40582 1463 ft 176 kts 121°
2026-05-07 19:42 51.45405 -0.38986 2051 ft 187 kts 133°
2026-05-07 19:42 51.44410 -0.37587 2816 ft 194 kts 145°
2026-05-07 19:42 51.43313 -0.36249 3483 ft 205 kts 125°
2026-05-07 19:42 51.42901 -0.34027 4058 ft 221 kts 91°
2026-05-07 19:43 51.42839 -0.31422 4493 ft 246 kts 95°
2026-05-07 19:43 51.42608 -0.28618 5155 ft 260 kts 99°
2026-05-07 19:43 51.42297 -0.25734 5994 ft 266 kts 100°
2026-05-07 19:43 51.41945 -0.22793 6812 ft 272 kts 102°
2026-05-07 19:44 51.41564 -0.19796 7625 ft 277 kts 102°
2026-05-07 19:44 51.41161 -0.16742 8461 ft 282 kts 103°
2026-05-07 19:44 51.40744 -0.13643 9325 ft 288 kts 103°
2026-05-07 19:44 51.40319 -0.10514 10148 ft 293 kts 103°
2026-05-07 19:45 51.39862 -0.07183 10644 ft 313 kts 103°
2026-05-07 19:45 51.39375 -0.03662 10990 ft 335 kts 104°
2026-05-07 19:45 51.38868 0.00002 11535 ft 346 kts 104°
2026-05-07 19:45 51.38343 0.03793 12329 ft 351 kts 104°
2026-05-07 19:46 51.37810 0.07632 13123 ft 354 kts 104°
2026-05-07 19:46 51.37269 0.11502 13908 ft 358 kts 104°
2026-05-07 19:46 51.36718 0.15413 14585 ft 362 kts 104°
2026-05-07 19:46 51.36164 0.19358 15243 ft 366 kts 104°
2026-05-07 19:47 51.35598 0.23354 15894 ft 370 kts 104°
2026-05-07 19:47 51.35025 0.27403 16546 ft 375 kts 104°
2026-05-07 19:47 51.34446 0.31487 17208 ft 379 kts 104°
2026-05-07 19:47 51.33857 0.35620 17797 ft 384 kts 104°
2026-05-07 19:48 51.33259 0.39809 18051 ft 387 kts 104°
2026-05-07 19:48 51.32660 0.44004 17903 ft 387 kts 104°
2026-05-07 19:48 51.32057 0.48208 17898 ft 387 kts 104°
2026-05-07 19:48 51.31452 0.52406 18073 ft 388 kts 104°
2026-05-07 19:49 51.30901 0.56644 18558 ft 392 kts 101°
2026-05-07 19:49 51.30486 0.60967 19124 ft 395 kts 99°
2026-05-07 19:49 51.30084 0.65326 19692 ft 398 kts 100°
2026-05-07 19:49 51.29670 0.69708 20239 ft 401 kts 100°
2026-05-07 19:50 51.29244 0.74127 20785 ft 404 kts 100°
2026-05-07 19:50 51.28815 0.78516 21312 ft 407 kts 100°
2026-05-07 19:50 51.28376 0.82998 21852 ft 410 kts 100°
2026-05-07 19:50 51.27928 0.87526 22392 ft 413 kts 100°
2026-05-07 19:51 51.27478 0.92073 22892 ft 417 kts 100°
2026-05-07 19:51 51.27026 0.96626 23088 ft 408 kts 100°
2026-05-07 19:51 51.26582 1.01074 23103 ft 404 kts 100°
2026-05-07 19:51 51.26141 1.05508 23089 ft 404 kts 100°
2026-05-07 19:52 51.25807 1.08874 23089 ft 404 kts 100°
2026-05-07 19:52 51.25602 1.10903 23087 ft 404 kts 101°
2026-05-07 19:52 51.25151 1.15325 23085 ft 404 kts 101°
2026-05-07 19:52 51.24699 1.19749 23086 ft 404 kts 101°
2026-05-07 19:53 51.24247 1.24165 23086 ft 403 kts 101°
2026-05-07 19:53 51.23795 1.28586 23084 ft 403 kts 101°
2026-05-07 19:53 51.23338 1.33025 23085 ft 403 kts 101°
2026-05-07 19:53 51.22879 1.37464 23084 ft 406 kts 101°
2026-05-07 19:54 51.22418 1.41909 23081 ft 407 kts 101°
2026-05-07 19:54 51.21956 1.46364 23077 ft 407 kts 101°
2026-05-07 19:54 51.21498 1.50756 23079 ft 407 kts 101°
2026-05-07 19:54 51.21031 1.55217 23078 ft 407 kts 101°
2026-05-07 19:55 51.20562 1.59673 23083 ft 407 kts 101°
2026-05-07 19:55 51.20092 1.64121 23083 ft 407 kts 101°
2026-05-07 19:55 51.19621 1.68566 23082 ft 407 kts 101°
2026-05-07 19:55 51.19149 1.73000 23085 ft 407 kts 101°
2026-05-07 19:56 51.18674 1.77440 23085 ft 407 kts 101°
2026-05-07 19:56 51.18199 1.81872 23086 ft 407 kts 101°
2026-05-07 19:56 51.17719 1.86320 23085 ft 407 kts 101°
2026-05-07 19:56 51.17236 1.90783 23081 ft 407 kts 101°
2026-05-07 19:57 51.16754 1.95236 23083 ft 408 kts 101°
2026-05-07 19:57 51.16269 1.99694 23084 ft 408 kts 101°
2026-05-07 19:57 51.15783 2.04146 23087 ft 408 kts 101°
2026-05-07 19:57 51.15295 2.08592 23081 ft 408 kts 101°
2026-05-07 19:58 51.14810 2.12988 23079 ft 408 kts 101°
2026-05-07 19:58 51.14318 2.17436 23083 ft 408 kts 101°
2026-05-07 19:58 51.13824 2.21894 23083 ft 408 kts 101°
2026-05-07 19:58 51.13330 2.26348 23083 ft 408 kts 101°
2026-05-07 19:59 51.12835 2.30792 23083 ft 408 kts 101°
2026-05-07 19:59 51.12337 2.35240 23083 ft 408 kts 101°
2026-05-07 19:59 51.11837 2.39694 23083 ft 408 kts 101°
2026-05-07 19:59 51.11334 2.44144 23082 ft 409 kts 101°
2026-05-07 20:00 51.10829 2.48601 23081 ft 409 kts 101°
2026-05-07 20:00 51.10322 2.53060 23085 ft 409 kts 101°
2026-05-07 20:00 51.09814 2.57508 23084 ft 409 kts 101°
2026-05-07 20:00 51.09327 2.61912 23078 ft 409 kts 98°
2026-05-07 20:01 51.09101 2.66376 22832 ft 400 kts 93°
2026-05-07 20:01 51.09008 2.70769 22253 ft 398 kts 92°
2026-05-07 20:01 51.08947 2.75172 21661 ft 395 kts 92°
2026-05-07 20:01 51.08892 2.79528 21084 ft 393 kts 92°
2026-05-07 20:02 51.08838 2.83852 20498 ft 391 kts 92°
2026-05-07 20:02 51.08783 2.88167 19935 ft 388 kts 92°
2026-05-07 20:02 51.08728 2.92452 19378 ft 386 kts 92°
2026-05-07 20:02 51.08671 2.96703 18834 ft 384 kts 92°
2026-05-07 20:03 51.08614 3.00936 18294 ft 381 kts 92°
2026-05-07 20:03 51.08557 3.05139 17682 ft 379 kts 92°
2026-05-07 20:03 51.08501 3.09318 17085 ft 377 kts 92°
2026-05-07 20:03 51.08446 3.13476 16496 ft 375 kts 92°
2026-05-07 20:04 51.08394 3.17607 15918 ft 372 kts 92°
2026-05-07 20:04 51.08342 3.21716 15345 ft 370 kts 92°
2026-05-07 20:04 51.08293 3.25798 14787 ft 368 kts 92°
2026-05-07 20:04 51.08246 3.29844 14397 ft 362 kts 92°
2026-05-07 20:05 51.08202 3.33741 14139 ft 352 kts 92°
2026-05-07 20:05 51.08159 3.37585 13726 ft 347 kts 92°
2026-05-07 20:05 51.08117 3.41409 13227 ft 344 kts 92°
2026-05-07 20:05 51.08071 3.45210 12734 ft 342 kts 92°
2026-05-07 20:06 51.08024 3.48976 12276 ft 339 kts 92°
2026-05-07 20:06 51.07973 3.52715 12079 ft 338 kts 92°
2026-05-07 20:06 51.07921 3.56454 12054 ft 337 kts 92°
2026-05-07 20:06 51.07867 3.60192 12063 ft 337 kts 92°
2026-05-07 20:07 51.07814 3.63920 12070 ft 337 kts 92°
2026-05-07 20:07 51.07760 3.67649 12075 ft 337 kts 92°
2026-05-07 20:07 51.07706 3.71385 12076 ft 337 kts 92°
2026-05-07 20:07 51.07651 3.75116 12076 ft 337 kts 92°
2026-05-07 20:08 51.07596 3.78841 12075 ft 338 kts 92°
2026-05-07 20:08 51.07540 3.82559 12000 ft 332 kts 92°
2026-05-07 20:08 51.07485 3.86224 11502 ft 331 kts 92°
2026-05-07 20:08 51.07427 3.89891 11007 ft 331 kts 92°
2026-05-07 20:09 51.07366 3.93540 10546 ft 329 kts 92°
2026-05-07 20:09 51.07301 3.97162 10108 ft 327 kts 92°
2026-05-07 20:09 51.07234 4.00759 9657 ft 324 kts 92°
2026-05-07 20:10 51.07099 4.07871 8743 ft 319 kts 92°
2026-05-07 20:10 51.07033 4.11386 8317 ft 316 kts 92°
2026-05-07 20:10 51.06968 4.14872 8090 ft 315 kts 92°
2026-05-07 20:10 51.06903 4.18343 8059 ft 314 kts 92°
2026-05-07 20:11 51.06839 4.21771 8067 ft 314 kts 92°
2026-05-07 20:11 51.06773 4.25270 7952 ft 309 kts 92°
2026-05-07 20:11 51.06710 4.28671 7487 ft 308 kts 92°
2026-05-07 20:11 51.06647 4.32032 7036 ft 307 kts 92°
2026-05-07 20:12 51.06585 4.35422 6613 ft 305 kts 92°
2026-05-07 20:12 51.06522 4.38786 6194 ft 303 kts 92°
2026-05-07 20:12 51.06459 4.42115 5785 ft 300 kts 92°
2026-05-07 20:12 51.06392 4.45404 5492 ft 293 kts 92°
2026-05-07 20:13 51.06327 4.48576 5321 ft 282 kts 92°
2026-05-07 20:13 51.06262 4.51624 5175 ft 269 kts 92°
2026-05-07 20:13 51.06199 4.54545 4980 ft 261 kts 92°
2026-05-07 20:13 51.06135 4.57417 4634 ft 258 kts 92°
2026-05-07 20:14 51.06069 4.60261 4260 ft 257 kts 92°
2026-05-07 20:14 51.06002 4.63090 3890 ft 255 kts 92°
2026-05-07 20:14 51.05934 4.65903 3516 ft 254 kts 92°
2026-05-07 20:14 51.05865 4.68711 3150 ft 254 kts 92°
2026-05-07 20:15 51.05793 4.71511 3001 ft 254 kts 92°
2026-05-07 20:15 51.05719 4.74309 2989 ft 254 kts 92°
2026-05-07 20:15 51.05642 4.77123 3011 ft 251 kts 92°
2026-05-07 20:15 51.05538 4.78919 2996 ft 240 kts 103°
2026-05-07 20:16 51.04504 4.81811 2999 ft 225 kts 130°
2026-05-07 20:16 51.03449 4.83642 3004 ft 224 kts 132°
2026-05-07 20:16 51.02384 4.85369 2991 ft 210 kts 142°
2026-05-07 20:16 51.01111 4.86185 2969 ft 190 kts 177°
2026-05-07 20:17 50.99862 4.85688 2969 ft 189 kts 213°
2026-05-07 20:17 50.99178 4.84826 2989 ft 190 kts 221°
2026-05-07 20:17 50.98209 4.83390 3050 ft 191 kts 222°
2026-05-07 20:17 50.97249 4.81939 3054 ft 190 kts 222°
2026-05-07 20:18 50.96440 4.80282 3017 ft 192 kts 240°
2026-05-07 20:18 50.95891 4.78360 3012 ft 192 kts 248°
2026-05-07 20:18 50.95433 4.76371 3009 ft 192 kts 249°
2026-05-07 20:18 50.94975 4.74382 3004 ft 191 kts 249°
2026-05-07 20:19 50.94518 4.72397 2882 ft 191 kts 249°
2026-05-07 20:19 50.94062 4.70417 2667 ft 194 kts 249°
2026-05-07 20:19 50.93613 4.68463 2389 ft 177 kts 249°
2026-05-07 20:19 50.93217 4.66746 2109 ft 159 kts 249°
2026-05-07 20:20 50.92861 4.65197 1875 ft 146 kts 249°
2026-05-07 20:20 50.92514 4.63690 1691 ft 145 kts 249°
2026-05-07 20:20 50.92169 4.62190 1498 ft 145 kts 249°
2026-05-07 20:20 50.91824 4.60693 1305 ft 144 kts 249°
2026-05-07 20:21 50.91480 4.59200 1109 ft 144 kts 250°
2026-05-07 20:21 50.91143 4.57739 920 ft 143 kts 250°
2026-05-07 20:21 50.90798 4.56243 718 ft 142 kts 250°
2026-05-07 20:21 50.90462 4.54782 529 ft 141 kts 250°
2026-05-07 20:22 50.90127 4.53330 345 ft 140 kts 250°
2026-05-07 20:22 50.89797 4.51900 193 ft 140 kts 250°
2026-05-07 20:22 50.89495 4.50590 181 ft 99 kts 252°
2026-05-07 20:22 50.89339 4.49922 183 ft 27 kts 255°
2026-05-07 20:23 50.89364 4.49687 179 ft 16 kts 307°
2026-05-07 20:23 50.89424 4.49553 173 ft 14 kts 307°
2026-05-07 20:23 50.89486 4.49428 170 ft 15 kts 308°
2026-05-07 20:23 50.89551 4.49295 165 ft 14 kts 303°
2026-05-07 20:24 50.89639 4.49266 158 ft 15 kts 13°
2026-05-07 20:24 50.89743 4.49308 152 ft 16 kts 13°
2026-05-07 20:24 50.89855 4.49348 145 ft 17 kts 12°
2026-05-07 20:24 50.89971 4.49393 138 ft 18 kts 12°
2026-05-07 20:25 50.90093 4.49447 136 ft 19 kts 14°
2026-05-07 20:25 50.90224 4.49501 133 ft 20 kts 14°
2026-05-07 20:25 50.90352 4.49519 127 ft 19 kts 311°
2026-05-07 20:25 50.90328 4.49336 129 ft 12 kts 245°
2026-05-07 20:26 50.90294 4.49204 132 ft 14 kts 245°
2026-05-07 20:26 50.90251 4.49058 133 ft 12 kts 244°
2026-05-07 20:26 50.90189 4.49042 135 ft 7 kts 153°
2026-05-07 20:26 50.90166 4.49059 136 ft 3 kts 153°
2026-05-07 20:27 50.90165 4.49059 136 ft 0 kts 154°